Regional Weather Roundup
Issued by NWS Burlington, VT

Home | Current Version | Previous Version | Text Only | Print | Product List | Glossary On
Versions: 1 2 3 4 5 6 7 8 9 10 11 12 13 14 15 16 17 18 19 20 21 22 23 24 25 26 27 28 29 30 31 32 33 34 35 36 37 38 39 40 41 42 43 44 45 46 47 48 49 50
000
ASUS41 KBTV 180030
RWRBTV
VERMONT REGIONAL WEATHER ROUNDUP
NATIONAL WEATHER SERVICE BURLINGTON VT
800 PM EDT TUE OCT 17 2017

NOTE: "FAIR" INDICATES FEW OR NO CLOUDS BELOW 12,000 FEET WITH NO
SIGNIFICANT WEATHER AND/OR OBSTRUCTIONS TO VISIBILITY.

* THESE REPORTS ARE NOT UNDER NWS QUALITY CONTROL AND/OR DO NOT
  REPORT WEATHER SUCH AS PRECIPITATION AND FOG.

VTZ001>019-180100-
_____VERMONT_____


CITY           SKY/WX    TMP DP  RH WIND       PRES   REMARKS
BURLINGTON     CLOUDY    52  30  43 S16G23    30.08F
6HR MIN TEMP:  51; 6HR MAX TEMP:  57;

MONTPELIER     CLEAR     44  30  57 S5        30.15S
6HR MIN TEMP:  44; 6HR MAX TEMP:  55;

MORRISVILLE    CLOUDY    47  30  51 S6        30.10S
6HR MIN TEMP:  45; 6HR MAX TEMP:  55;

ST. JOHNSBURY*   N/A     49  30  48 MISG      30.10S
6HR MIN TEMP:  49; 6HR MAX TEMP:  54;

LYNDONVILLE*   FAIR      46  28  49 SE6       30.12S
6HR MIN TEMP:  46; 6HR MAX TEMP:  54;

MIDDLEBURY*    FAIR      50  31  47 S9G20     30.14S
6HR MIN TEMP:  49; 6HR MAX TEMP:  54;

RUTLAND*       CLEAR     46  30  53 E8        30.18R
6HR MIN TEMP:  45; 6HR MAX TEMP:  54;

SPRINGFIELD    CLEAR     43  30  60 CALM      30.18S
6HR MIN TEMP:  42; 6HR MAX TEMP:  57;

HIGHGATE*      FAIR      51  32  48 S10G18    30.07R
6HR MIN TEMP:  51; 6HR MAX TEMP:  56;

NEWPORT*       FAIR      48  28  47 S8        30.08S
6HR MIN TEMP:  47; 6HR MAX TEMP:  54;

BENNINGTON     CLEAR     41  32  70 CALM      30.20R
6HR MIN TEMP:  40; 6HR MAX TEMP:  55;

SUTTON*          N/A     43 N/A N/A MISG        N/A
ISLAND POND*     N/A     43 N/A N/A CALM        N/A
GALLUP MILLS*    N/A     34 N/A N/A MISG        N/A
UNION VILLAGE*   N/A     37 N/A N/A MISG        N/A
MT. MANSFIELD*   N/A     37 N/A N/A SW39G58     N/A  WCI  23

_____LAKE CHAMPLAIN_____


CITY           SKY/WX    TMP DP  RH WIND       PRES   REMARKS
BURTON ISLAND*   N/A     55  39  54 S24         N/A
COLCHESTER RF*   N/A     55  39  54 S29G35      N/A
DIAMOND ISL*     N/A     52  34  50 SE18        N/A

$$

NYZ007-026>031-035-052-083-087-180100-
_____NORTHERN NEW YORK_____


CITY           SKY/WX    TMP DP  RH WIND       PRES   REMARKS
PLATTSBURGH    CLEAR     51  34  52 S7G17     30.07R
6HR MIN TEMP:  50; 6HR MAX TEMP:  56;

SARANAC LAKE   CLEAR     47  35  63 SW12      30.07R
6HR MIN TEMP:  46; 6HR MAX TEMP:  54;

MASSENA        CLEAR     56  43  61 SW15G23   30.04S
6HR MIN TEMP:  56; 6HR MAX TEMP:  59;

OGDENSBURG*    FAIR      55  42  61 S14       30.04F
6HR MIN TEMP:  55; 6HR MAX TEMP:  60;

POTSDAM*       CLEAR     55  41  58 SW13G22   30.05S
STARK FALLS*     N/A     52 N/A N/A S12         N/A
WATERTOWN      CLEAR     54  41  61 S8        30.09R
6HR MIN TEMP:  54; 6HR MAX TEMP:  60;

FT DRUM        CLEAR     53  39  59 SW12      30.08R
6HR MIN TEMP:  52; 6HR MAX TEMP:  59;

ALBANY         CLEAR     50  34  54 S5        30.21R
6HR MIN TEMP:  47; 6HR MAX TEMP:  57;

GLENS FALLS    CLEAR     48  32  53 S7        30.17S
6HR MIN TEMP:  47; 6HR MAX TEMP:  56;


$$
NHZ002-005-011-180100-
_____NEW HAMPSHIRE_____


CITY           SKY/WX    TMP DP  RH WIND       PRES   REMARKS
LEBANON        CLEAR     44  30  57 S10       30.15F
6HR MIN TEMP:  44; 6HR MAX TEMP:  59;

KEENE          CLEAR     40  34  79 CALM      30.21R
6HR MIN TEMP:  40; 6HR MAX TEMP:  59;

MT WASHINGTON  PTCLDY    27  18  69 W36         N/A  WCI   9
6HR MIN TEMP:  24; 6HR MAX TEMP:  27;

PLYMOUTH       FAIR      37  34  90 CALM      30.17R
6HR MIN TEMP:  38; 6HR MAX TEMP:  57;

WHITEFIELD     CLEAR     36  31  82 CALM      30.12S
6HR MIN TEMP:  35; 6HR MAX TEMP:  53;


$$

_____REGIONAL QUEBEC LOCATIONS_____


CITY           SKY/WX    TMP DP  RH WIND       PRES   REMARKS
MONTREAL       MOCLDY    57  43  58 SW18      30.00F
QUEBEC CITY    CLOUDY    46  34  61 CALM      29.98S
SHERBROOKE     CLOUDY    48  30  49 S8        30.04R

_____REGIONAL ONTARIO LOCATIONS_____


CITY           SKY/WX    TMP DP  RH WIND       PRES   REMARKS
OTTAWA         MOCLDY    55  46  71 S12       29.99S

______KEY______
VSB  - VISIBILITY IN MILES
WCI  - WIND CHILL INDEX
HX   - HEAT INDEX
$$
NNNN




USA.gov is the U.S. government's official web portal to all federal, state and local government web resources and services.